,,,PA_Meas_PMT16A,,PR_Meas_QMR101_102,,RH_Meas_QMH101,,SR_Meas_QMS101,,TA_Meas_QMH101,,GenWind,,GenWind,
date,time,status,PA,status,PR,status,RH,status,SR,status,TA,status,DirAvg,status,SpdAvg,
2009-10-16, 00:00:04,VALID,1001.93,VALID,0,VALID,88.4273,VALID,0,VALID,20.4277,VALID,169,VALID,0,
2009-10-16, 00:01:04,VALID,1001.99,VALID,0,VALID,88.351,VALID,0,VALID,20.3872,VALID,169,VALID,0.166406,
2009-10-16, 00:02:04,VALID,1001.97,VALID,0,VALID,88.2289,VALID,0,VALID,20.3677,VALID,151,VALID,0.119531,
2009-10-16, 00:03:04,VALID,1001.98,VALID,0,VALID,87.9466,VALID,0,VALID,20.3887,VALID,133,VALID,0.574609,
2009-10-16, 00:04:04,VALID,1001.96,VALID,0,VALID,87.8551,VALID,0,VALID,20.3677,VALID,116,VALID,0.836719,
2009-10-16, 00:05:04,VALID,1001.96,VALID,0,VALID,87.8169,VALID,0,VALID,20.3482,VALID,109,VALID,0.646484,
2009-10-16, 00:06:04,VALID,1001.95,VALID,0,VALID,88.145,VALID,0,VALID,20.3692,VALID,107,VALID,0.863281,
2009-10-16, 00:07:04,VALID,1001.98,VALID,0,VALID,88.3434,VALID,0,VALID,20.3692,VALID,115,VALID,0.722656,
2009-10-16, 00:08:04,VALID,1001.92,VALID,0,VALID,88.3968,VALID,0,VALID,20.3482,VALID,123,VALID,1.11758,
2009-10-16, 00:09:04,VALID,1001.93,VALID,0,VALID,88.2442,VALID,0,VALID,20.3692,VALID,116,VALID,1.06875,
2009-10-16, 00:10:04,VALID,1001.9,VALID,0,VALID,88.1679,VALID,0,VALID,20.3677,VALID,121,VALID,1.15234,
2009-10-16, 00:11:04,VALID,1001.88,VALID,0,VALID,87.9161,VALID,0,VALID,20.4082,VALID,118,VALID,0.446094,
2009-10-16, 00:12:04,VALID,1001.9,VALID,0,VALID,87.4965,VALID,0,VALID,20.3677,VALID,96,VALID,0.264844,
2009-10-16, 00:13:04,VALID,1001.88,VALID,0,VALID,87.6033,VALID,0,VALID,20.3482,VALID,56,VALID,0.329688,
2009-10-16, 00:14:04,VALID,1001.89,VALID,0,VALID,87.466,VALID,0,VALID,20.3303,VALID,347,VALID,0.386719,
2009-10-16, 00:15:04,VALID,1001.87,VALID,0,VALID,87.466,VALID,0,VALID,20.2897,VALID,347,VALID,0.13125,
2009-10-16, 00:16:04,VALID,1001.82,VALID,0,VALID,87.6262,VALID,0,VALID,20.3092,VALID,347,VALID,0.227344,
2009-10-16, 00:17:04,VALID,1001.8,VALID,0,VALID,87.8246,VALID,0,VALID,20.3287,VALID,135,VALID,0.742578,
2009-10-16, 00:18:04,VALID,1001.8,VALID,0,VALID,87.8474,VALID,0,VALID,20.3872,VALID,115,VALID,1.27266,
2009-10-16, 00:19:04,VALID,1001.82,VALID,0,VALID,87.5194,VALID,0,VALID,20.4862,VALID,125,VALID,1.25859,
2009-10-16, 00:20:04,VALID,1001.76,VALID,0,VALID,87.1379,VALID,0,VALID,20.5447,VALID,116,VALID,1.14648,
2009-10-16, 00:21:04,VALID,1001.75,VALID,0,VALID,87.0692,VALID,0,VALID,20.5237,VALID,113,VALID,1.43867,
2009-10-16, 00:22:04,VALID,1001.72,VALID,0,VALID,87.0387,VALID,0,VALID,20.5237,VALID,115,VALID,1.39492,
2009-10-16, 00:23:04,VALID,1001.7,VALID,0,VALID,86.8632,VALID,0,VALID,20.5432,VALID,110,VALID,1.45078,
2009-10-16, 00:24:04,VALID,1001.7,VALID,0,VALID,86.4894,VALID,0,VALID,20.5822,VALID,109,VALID,1.50664,
2009-10-16, 00:25:04,VALID,1001.64,VALID,0,VALID,86.1918,VALID,0,VALID,20.6406,VALID,107,VALID,1.52695,
2009-10-16, 00:26:04,VALID,1001.64,VALID,0,VALID,86.0469,VALID,0,VALID,20.6796,VALID,109,VALID,0.778516,
2009-10-16, 00:27:04,VALID,1001.63,VALID,0,VALID,85.7569,VALID,0,VALID,20.6796,VALID,105,VALID,0.76875,
2009-10-16, 00:28:04,VALID,1001.62,VALID,0,VALID,85.6196,VALID,0,VALID,20.6601,VALID,91,VALID,0.353125,
2009-10-16, 00:29:04,VALID,1001.62,VALID,0,VALID,85.4594,VALID,0,VALID,20.6812,VALID,91,VALID,0.137109,
2009-10-16, 00:30:04,VALID,1001.6,VALID,0,VALID,85.3297,VALID,0,VALID,20.6406,VALID,91,VALID,0.219141,
2009-10-16, 00:31:04,VALID,1001.57,VALID,0,VALID,85.1694,VALID,0,VALID,20.6211,VALID,91,VALID,0.214062,
2009-10-16, 00:32:04,VALID,1001.56,VALID,0,VALID,85.0397,VALID,0,VALID,20.6016,VALID,91,VALID,0.350391,
2009-10-16, 00:33:04,VALID,1001.54,VALID,0,VALID,84.9329,VALID,0,VALID,20.6032,VALID,91,VALID,0.232422,
2009-10-16, 00:34:04,VALID,1001.51,VALID,0,VALID,84.8643,VALID,0,VALID,20.5822,VALID,91,VALID,0.299219,
2009-10-16, 00:35:04,VALID,1001.52,VALID,0,VALID,85.1237,VALID,0,VALID,20.5627,VALID,91,VALID,0.196094,
2009-10-16, 00:36:04,VALID,1001.48,VALID,0,VALID,85.4823,VALID,0,VALID,20.5432,VALID,91,VALID,0.471094,
2009-10-16, 00:37:04,VALID,1001.49,VALID,0,VALID,85.5586,VALID,0,VALID,20.5252,VALID,79,VALID,0.550781,
2009-10-16, 00:38:04,VALID,1001.45,VALID,0,VALID,85.3449,VALID,0,VALID,20.5447,VALID,82,VALID,0.404687,
2009-10-16, 00:39:04,VALID,1001.43,VALID,0,VALID,85.5815,VALID,0,VALID,20.6032,VALID,73,VALID,0.533984,
2009-10-16, 00:40:04,VALID,1001.44,VALID,0,VALID,85.0016,VALID,0,VALID,20.6406,VALID,66,VALID,0.432031,
2009-10-16, 00:41:04,VALID,1001.42,VALID,0,VALID,85.1847,VALID,0,VALID,20.6406,VALID,49,VALID,0.677734,
2009-10-16, 00:42:04,VALID,1001.44,VALID,0,VALID,85.4365,VALID,0,VALID,20.6422,VALID,49,VALID,0.378906,
2009-10-16, 00:43:04,VALID,1001.43,VALID,0,VALID,85.6349,VALID,0,VALID,20.6227,VALID,49,VALID,0.319141,
2009-10-16, 00:44:04,VALID,1001.44,VALID,0,VALID,86.2529,VALID,0,VALID,20.5822,VALID,49,VALID,0.303125,
2009-10-16, 00:45:04,VALID,1001.44,VALID,0,VALID,85.4899,VALID,0,VALID,20.5627,VALID,73,VALID,0.521484,
2009-10-16, 00:46:04,VALID,1001.46,VALID,0,VALID,85.3678,VALID,0,VALID,20.5447,VALID,73,VALID,0.566406,
2009-10-16, 00:47:04,VALID,1001.43,VALID,0,VALID,84.9482,VALID,0,VALID,20.5252,VALID,74,VALID,0.364844,
2009-10-16, 00:48:04,VALID,1001.41,VALID,0,VALID,85.5662,VALID,0,VALID,20.5057,VALID,74,VALID,0.303516,
2009-10-16, 00:49:04,VALID,1001.41,VALID,0,VALID,85.406,VALID,0,VALID,20.4847,VALID,73,VALID,0.576953,
2009-10-16, 00:50:04,VALID,1001.39,VALID,0,VALID,85.0703,VALID,0,VALID,20.5042,VALID,73,VALID,0.339453,
2009-10-16, 00:51:04,VALID,1001.38,VALID,0,VALID,84.7498,VALID,0,VALID,20.5057,VALID,73,VALID,0.264062,
2009-10-16, 00:52:04,VALID,1001.39,VALID,0,VALID,84.4141,VALID,0,VALID,20.5042,VALID,105,VALID,0.646875,
2009-10-16, 00:53:04,VALID,1001.39,VALID,0,VALID,83.9563,VALID,0,VALID,20.5627,VALID,81,VALID,0.804688,
2009-10-16, 00:54:04,VALID,1001.39,VALID,0,VALID,83.4223,VALID,0,VALID,20.6406,VALID,78,VALID,0.775391,
2009-10-16, 00:55:04,VALID,1001.39,VALID,0,VALID,83.1095,VALID,0,VALID,20.7397,VALID,84,VALID,0.8,
2009-10-16, 00:56:04,VALID,1001.38,VALID,0,VALID,83.201,VALID,0,VALID,20.7592,VALID,84,VALID,0.425781,
2009-10-16, 00:57:04,VALID,1001.39,VALID,0,VALID,82.9569,VALID,0,VALID,20.7592,VALID,84,VALID,0.573047,
2009-10-16, 00:58:04,VALID,1001.38,VALID,0,VALID,83.0179,VALID,0,VALID,20.7771,VALID,87,VALID,0.759766,
2009-10-16, 00:59:04,VALID,1001.34,VALID,0,VALID,82.6974,VALID,0,VALID,20.8372,VALID,92,VALID,0.733594,
2009-10-16, 01:00:04,VALID,1001.34,VALID,0,VALID,82.5525,VALID,0,VALID,20.8551,VALID,93,VALID,0.470313,
2009-10-16, 01:01:04,VALID,1001.32,VALID,0,VALID,83.0713,VALID,0,VALID,20.8356,VALID,93,VALID,0.161328,
2009-10-16, 01:02:04,VALID,1001.32,VALID,0,VALID,83.2544,VALID,0,VALID,20.8161,VALID,93,VALID,0,
2009-10-16, 01:03:04,VALID,1001.33,VALID,0,VALID,83.6435,VALID,0,VALID,20.7592,VALID,93,VALID,0.0511719,
2009-10-16, 01:04:04,VALID,1001.32,VALID,0,VALID,83.8953,VALID,0,VALID,20.6991,VALID,93,VALID,0.36875,
2009-10-16, 01:05:04,VALID,1001.29,VALID,0,VALID,83.964,VALID,0,VALID,20.6406,VALID,92,VALID,0.314453,
2009-10-16, 01:06:04,VALID,1001.29,VALID,0,VALID,83.964,VALID,0,VALID,20.6211,VALID,93,VALID,0.572656,
2009-10-16, 01:07:04,VALID,1001.27,VALID,0,VALID,83.5138,VALID,0,VALID,20.6422,VALID,97,VALID,0.631641,
2009-10-16, 01:08:04,VALID,1001.29,VALID,0,VALID,83.2239,VALID,0,VALID,20.6812,VALID,102,VALID,0.589453,
2009-10-16, 01:09:04,VALID,1001.27,VALID,0,VALID,83.1323,VALID,0,VALID,20.6796,VALID,102,VALID,0.717578,
2009-10-16, 01:10:04,VALID,1001.29,VALID,0,VALID,83.0789,VALID,0,VALID,20.7186,VALID,114,VALID,0.748828,
2009-10-16, 01:11:04,VALID,1001.27,VALID,0,VALID,83.1857,VALID,0,VALID,20.7202,VALID,117,VALID,0.732813,
2009-10-16, 01:12:04,VALID,1001.25,VALID,0,VALID,83.2544,VALID,0,VALID,20.7186,VALID,122,VALID,0.845703,
2009-10-16, 01:13:04,VALID,1001.25,VALID,0,VALID,83.0026,VALID,0,VALID,20.7771,VALID,123,VALID,0.926953,
2009-10-16, 01:14:04,VALID,1001.23,VALID,0,VALID,82.9035,VALID,0,VALID,20.8161,VALID,122,VALID,0.904688,
2009-10-16, 01:15:04,VALID,1001.23,VALID,0,VALID,82.9645,VALID,0,VALID,20.8161,VALID,122,VALID,0.803516,
2009-10-16, 01:16:04,VALID,1001.22,VALID,0,VALID,83.1247,VALID,0,VALID,20.8161,VALID,122,VALID,0.821875,
2009-10-16, 01:17:04,VALID,1001.2,VALID,0,VALID,83.3765,VALID,0,VALID,20.7771,VALID,109,VALID,0.817969,
2009-10-16, 01:18:04,VALID,1001.17,VALID,0,VALID,83.2239,VALID,0,VALID,20.7171,VALID,105,VALID,0.845312,
2009-10-16, 01:19:04,VALID,1001.17,VALID,0,VALID,83.0866,VALID,0,VALID,20.6781,VALID,102,VALID,0.685156,
2009-10-16, 01:20:04,VALID,1001.14,VALID,0,VALID,83.2544,VALID,0,VALID,20.6601,VALID,101,VALID,0.422656,
2009-10-16, 01:21:04,VALID,1001.12,VALID,0,VALID,83.3307,VALID,0,VALID,20.5822,VALID,101,VALID,0.315625,
2009-10-16, 01:22:04,VALID,1001.09,VALID,0,VALID,83.5367,VALID,0,VALID,20.5026,VALID,101,VALID,0.361328,
2009-10-16, 01:23:04,VALID,1001.09,VALID,0,VALID,84.025,VALID,0,VALID,20.4652,VALID,101,VALID,0.123438,
2009-10-16, 01:24:04,VALID,1001.04,VALID,0,VALID,84.4523,VALID,0,VALID,20.4067,VALID,101,VALID,0,
2009-10-16, 01:25:04,VALID,1001.05,VALID,0,VALID,84.4828,VALID,0,VALID,20.3662,VALID,101,VALID,0,
2009-10-16, 01:26:04,VALID,1001.03,VALID,0,VALID,84.4217,VALID,0,VALID,20.3677,VALID,101,VALID,0,
2009-10-16, 01:27:04,VALID,1001.01,VALID,0,VALID,84.3989,VALID,0,VALID,20.3272,VALID,101,VALID,0,
2009-10-16, 01:28:04,VALID,1001.03,VALID,0,VALID,84.498,VALID,0,VALID,20.3092,VALID,101,VALID,0,
2009-10-16, 01:29:04,VALID,1001.01,VALID,0,VALID,84.91,VALID,0,VALID,20.2133,VALID,101,VALID,0,
2009-10-16, 01:30:04,VALID,1001,VALID,0,VALID,85.5815,VALID,0,VALID,20.1353,VALID,101,VALID,0.317187,
2009-10-16, 01:31:04,VALID,1000.99,VALID,0,VALID,86.2147,VALID,0,VALID,20.0768,VALID,101,VALID,0.257422,
2009-10-16, 01:32:04,VALID,1000.99,VALID,0,VALID,86.9472,VALID,0,VALID,20.0378,VALID,101,VALID,0.276563,
2009-10-16, 01:33:04,VALID,1000.99,VALID,0,VALID,87.0845,VALID,0,VALID,19.9973,VALID,101,VALID,0.342187,
2009-10-16, 01:34:04,VALID,1000.96,VALID,0,VALID,87.3744,VALID,0,VALID,19.9404,VALID,101,VALID,0.291797,
2009-10-16, 01:35:04,VALID,1000.98,VALID,0,VALID,88.3281,VALID,0,VALID,19.8819,VALID,101,VALID,0.244141,
2009-10-16, 01:36:04,VALID,1000.95,VALID,0,VALID,88.6943,VALID,0,VALID,19.8624,VALID,101,VALID,0.222266,
2009-10-16, 01:37:04,VALID,1000.94,VALID,0,VALID,88.3586,VALID,0,VALID,19.8234,VALID,101,VALID,0.279687,
2009-10-16, 01:38:04,VALID,1000.92,VALID,0,VALID,88.2137,VALID,0,VALID,19.8234,VALID,101,VALID,0.319922,
2009-10-16, 01:39:04,VALID,1000.9,VALID,0,VALID,88.5189,VALID,0,VALID,19.8234,VALID,101,VALID,0.242969,
2009-10-16, 01:40:04,VALID,1000.91,VALID,0,VALID,88.9003,VALID,0,VALID,19.8219,VALID,101,VALID,0.148828,
2009-10-16, 01:41:04,VALID,1000.92,VALID,0,VALID,89.1521,VALID,0,VALID,19.8429,VALID,101,VALID,0,
2009-10-16, 01:42:04,VALID,1000.89,VALID,0,VALID,89.3581,VALID,0,VALID,19.8219,VALID,101,VALID,0,
2009-10-16, 01:43:04,VALID,1000.88,VALID,0,VALID,89.4039,VALID,0,VALID,19.8429,VALID,101,VALID,0,
2009-10-16, 01:44:04,VALID,1000.88,VALID,0,VALID,89.4878,VALID,0,VALID,19.8234,VALID,101,VALID,0,
2009-10-16, 01:45:04,VALID,1000.89,VALID,0,VALID,89.175,VALID,0,VALID,19.8039,VALID,101,VALID,0.0398437,
2009-10-16, 01:46:04,VALID,1000.91,VALID,0,VALID,88.8927,VALID,0,VALID,19.7844,VALID,101,VALID,0.121875,
2009-10-16, 01:47:04,VALID,1000.89,VALID,0,VALID,88.4578,VALID,0,VALID,19.7634,VALID,101,VALID,0.339844,
2009-10-16, 01:48:04,VALID,1000.86,VALID,0,VALID,87.9237,VALID,0,VALID,19.8234,VALID,101,VALID,0.408203,
2009-10-16, 01:49:04,VALID,1000.83,VALID,0,VALID,87.3439,VALID,0,VALID,19.8609,VALID,101,VALID,0.615625,
2009-10-16, 01:50:04,VALID,1000.82,VALID,0,VALID,86.7335,VALID,0,VALID,19.9209,VALID,101,VALID,0.704297,
2009-10-16, 01:51:04,VALID,1000.79,VALID,0,VALID,86.558,VALID,0,VALID,19.9404,VALID,101,VALID,0.565234,
2009-10-16, 01:52:04,VALID,1000.78,VALID,0,VALID,86.2529,VALID,0,VALID,19.9988,VALID,101,VALID,0.633984,
2009-10-16, 01:53:04,VALID,1000.79,VALID,0,VALID,85.8637,VALID,0,VALID,19.9973,VALID,101,VALID,0.382422,
2009-10-16, 01:54:04,VALID,1000.8,VALID,0,VALID,86.0774,VALID,0,VALID,19.9988,VALID,101,VALID,0.252734,
2009-10-16, 01:55:04,VALID,1000.8,VALID,0,VALID,86.1308,VALID,0,VALID,19.9988,VALID,101,VALID,0.126953,
2009-10-16, 01:56:04,VALID,1000.8,VALID,0,VALID,86.1003,VALID,0,VALID,19.9598,VALID,101,VALID,0.225781,
2009-10-16, 01:57:04,VALID,1000.79,VALID,0,VALID,85.9477,VALID,0,VALID,19.9404,VALID,101,VALID,0.453516,
2009-10-16, 01:58:04,VALID,1000.77,VALID,0,VALID,86.8785,VALID,0,VALID,19.9209,VALID,70,VALID,0.483984,
2009-10-16, 01:59:04,VALID,1000.75,VALID,0,VALID,86.9472,VALID,0,VALID,19.8819,VALID,62,VALID,0.614844,
2009-10-16, 02:00:04,VALID,1000.7,VALID,0,VALID,86.7564,VALID,0,VALID,19.8624,VALID,64,VALID,0.713281,
2009-10-16, 02:01:04,VALID,1000.7,VALID,0,VALID,86.7793,VALID,0,VALID,19.8804,VALID,78,VALID,0.999609,
2009-10-16, 02:02:04,VALID,1000.68,VALID,0,VALID,86.4283,VALID,0,VALID,19.9598,VALID,75,VALID,0.861328,
2009-10-16, 02:03:04,VALID,1000.67,VALID,0,VALID,84.9482,VALID,0,VALID,20.0183,VALID,97,VALID,1.13477,
2009-10-16, 02:04:04,VALID,1000.65,VALID,0,VALID,84.9634,VALID,0,VALID,20.0573,VALID,86,VALID,0.879297,
2009-10-16, 02:05:04,VALID,1000.65,VALID,0,VALID,84.4904,VALID,0,VALID,20.1158,VALID,86,VALID,0.563281,
2009-10-16, 02:06:04,VALID,1000.67,VALID,0,VALID,84.2997,VALID,0,VALID,20.1353,VALID,42,VALID,0.686719,
2009-10-16, 02:07:04,VALID,1000.62,VALID,0,VALID,86.23,VALID,0,VALID,20.1158,VALID,28,VALID,0.853125,
2009-10-16, 02:08:04,VALID,1000.65,VALID,0,VALID,87.9924,VALID,0,VALID,20.0768,VALID,27,VALID,0.780859,
2009-10-16, 02:09:04,VALID,1000.63,VALID,0,VALID,88.6257,VALID,0,VALID,20.0363,VALID,27,VALID,0.828125,
2009-10-16, 02:10:04,VALID,1000.6,VALID,0,VALID,88.4502,VALID,0,VALID,19.9973,VALID,27,VALID,0.878125,
2009-10-16, 02:11:04,VALID,1000.56,VALID,0,VALID,89.0606,VALID,0,VALID,19.9793,VALID,30,VALID,0.891406,
2009-10-16, 02:12:04,VALID,1000.57,VALID,0,VALID,88.6943,VALID,0,VALID,19.9404,VALID,40,VALID,0.873438,
2009-10-16, 02:13:04,VALID,1000.52,VALID,0,VALID,89.3581,VALID,0,VALID,19.9209,VALID,40,VALID,0.898828,
2009-10-16, 02:14:04,VALID,1000.52,VALID,0,VALID,89.4268,VALID,0,VALID,19.8804,VALID,40,VALID,0.828125,
2009-10-16, 02:15:04,VALID,1000.53,VALID,0,VALID,89.732,VALID,0,VALID,19.8414,VALID,39,VALID,0.739062,
2009-10-16, 02:16:04,VALID,1000.5,VALID,0,VALID,89.8006,VALID,0,VALID,19.8609,VALID,38,VALID,0.607813,
2009-10-16, 02:17:04,VALID,1000.5,VALID,0,VALID,89.5336,VALID,0,VALID,19.8624,VALID,38,VALID,0.810938,
2009-10-16, 02:18:04,VALID,1000.52,VALID,0,VALID,89.5641,VALID,0,VALID,19.8429,VALID,38,VALID,0.835156,
2009-10-16, 02:19:04,VALID,1000.52,VALID,0,VALID,89.8617,VALID,0,VALID,19.8219,VALID,38,VALID,0.849609,
2009-10-16, 02:20:04,VALID,1000.55,VALID,0,VALID,89.6938,VALID,0,VALID,19.8219,VALID,38,VALID,0.735156,
2009-10-16, 02:21:04,VALID,1000.54,VALID,0,VALID,89.8311,VALID,0,VALID,19.8234,VALID,38,VALID,0.710547,
2009-10-16, 02:22:04,VALID,1000.51,VALID,0,VALID,89.4039,VALID,0,VALID,19.8039,VALID,64,VALID,0.816797,
2009-10-16, 02:23:04,VALID,1000.52,VALID,0,VALID,88.1679,VALID,0,VALID,19.7649,VALID,75,VALID,0.948828,
2009-10-16, 02:24:04,VALID,1000.51,VALID,0,VALID,87.9771,VALID,0,VALID,19.7064,VALID,78,VALID,0.666797,
2009-10-16, 02:25:04,VALID,1000.53,VALID,0,VALID,88.1526,VALID,0,VALID,19.6869,VALID,80,VALID,0.551172,
2009-10-16, 02:26:04,VALID,1000.53,VALID,0,VALID,88.2823,VALID,0,VALID,19.6674,VALID,80,VALID,0.446484,
2009-10-16, 02:27:04,VALID,1000.55,VALID,0,VALID,88.0763,VALID,0,VALID,19.6075,VALID,80,VALID,0.189063,
2009-10-16, 02:28:04,VALID,1000.57,VALID,0,VALID,88.1755,VALID,0,VALID,19.588,VALID,80,VALID,0.403906,
2009-10-16, 02:29:04,VALID,1000.56,VALID,0,VALID,87.8932,VALID,0,VALID,19.5895,VALID,109,VALID,0.752734,
2009-10-16, 02:30:04,VALID,1000.55,VALID,0,VALID,87.3286,VALID,0,VALID,19.6075,VALID,107,VALID,0.815234,
2009-10-16, 02:31:04,VALID,1000.52,VALID,0,VALID,86.7564,VALID,0,VALID,19.7259,VALID,105,VALID,0.721875,
2009-10-16, 02:32:04,VALID,1000.52,VALID,0,VALID,86.0469,VALID,0,VALID,19.7844,VALID,94,VALID,0.616797,
2009-10-16, 02:33:04,VALID,1000.51,VALID,0,VALID,86.1689,VALID,0,VALID,19.8024,VALID,92,VALID,0.798047,
2009-10-16, 02:34:04,VALID,1000.49,VALID,0,VALID,85.9477,VALID,0,VALID,19.8624,VALID,92,VALID,0.531641,
2009-10-16, 02:35:04,VALID,1000.49,VALID,0,VALID,86.4131,VALID,0,VALID,19.8819,VALID,92,VALID,0.179297,
2009-10-16, 02:36:04,VALID,1000.49,VALID,0,VALID,86.9624,VALID,0,VALID,19.8414,VALID,92,VALID,0.000390625,
2009-10-16, 02:37:04,VALID,1000.47,VALID,0,VALID,87.6643,VALID,0,VALID,19.8234,VALID,40,VALID,0.619141,
2009-10-16, 02:38:04,VALID,1000.47,VALID,0,VALID,87.9619,VALID,0,VALID,19.7049,VALID,358,VALID,0.537891,
2009-10-16, 02:39:04,VALID,1000.46,VALID,0,VALID,88.2213,VALID,0,VALID,19.6674,VALID,358,VALID,0.319141,
2009-10-16, 02:40:04,VALID,1000.49,VALID,0,VALID,88.6867,VALID,0,VALID,19.6465,VALID,358,VALID,0.354297,
2009-10-16, 02:41:04,VALID,1000.47,VALID,0,VALID,88.2747,VALID,0,VALID,19.6285,VALID,358,VALID,0.175781,
2009-10-16, 02:42:04,VALID,1000.49,VALID,0,VALID,88.1297,VALID,0,VALID,19.5895,VALID,358,VALID,0,
2009-10-16, 02:43:04,VALID,1000.48,VALID,0,VALID,88.5875,VALID,0,VALID,19.5295,VALID,358,VALID,0,
2009-10-16, 02:44:04,VALID,1000.46,VALID,0,VALID,88.9156,VALID,0,VALID,19.492,VALID,358,VALID,0,
2009-10-16, 02:45:04,VALID,1000.47,VALID,0,VALID,89.1903,VALID,0,VALID,19.4321,VALID,358,VALID,0,
2009-10-16, 02:46:04,VALID,1000.47,VALID,0,VALID,89.03,VALID,0,VALID,19.4141,VALID,358,VALID,0.209766,
2009-10-16, 02:47:04,VALID,1000.42,VALID,0,VALID,89.4344,VALID,0,VALID,19.3541,VALID,358,VALID,0.344531,
2009-10-16, 02:48:04,VALID,1000.4,VALID,0,VALID,89.4115,VALID,0,VALID,19.2956,VALID,358,VALID,0.340234,
2009-10-16, 02:49:04,VALID,1000.42,VALID,0,VALID,89.2589,VALID,0,VALID,19.2177,VALID,358,VALID,0.232031,
2009-10-16, 02:50:04,VALID,1000.43,VALID,0,VALID,89.9761,VALID,0,VALID,19.1592,VALID,358,VALID,0.167969,
2009-10-16, 02:51:04,VALID,1000.45,VALID,0,VALID,90.1592,VALID,0,VALID,19.1397,VALID,358,VALID,0.250781,
2009-10-16, 02:52:04,VALID,1000.45,VALID,0,VALID,90.0066,VALID,0,VALID,19.1412,VALID,358,VALID,0.434375,
2009-10-16, 02:53:04,VALID,1000.42,VALID,0,VALID,90.3881,VALID,0,VALID,19.1203,VALID,359,VALID,0.501172,
2009-10-16, 02:54:04,VALID,1000.42,VALID,0,VALID,89.8159,VALID,0,VALID,19.1412,VALID,359,VALID,0.466406,
2009-10-16, 02:55:04,VALID,1000.39,VALID,0,VALID,89.648,VALID,0,VALID,19.1217,VALID,1,VALID,0.629687,
2009-10-16, 02:56:04,VALID,1000.41,VALID,0,VALID,89.6862,VALID,0,VALID,19.1008,VALID,4,VALID,0.703125,
2009-10-16, 02:57:04,VALID,1000.4,VALID,0,VALID,89.7396,VALID,0,VALID,19.1008,VALID,8,VALID,0.685547,
2009-10-16, 02:58:04,VALID,1000.39,VALID,0,VALID,89.6251,VALID,0,VALID,19.0813,VALID,13,VALID,0.842969,
2009-10-16, 02:59:04,VALID,1000.4,VALID,0,VALID,90.1058,VALID,0.112286,VALID,19.0423,VALID,16,VALID,0.927734,
2009-10-16, 03:00:04,VALID,1000.39,VALID,0,VALID,90.5636,VALID,0,VALID,19.0618,VALID,18,VALID,0.914063,
2009-10-16, 03:01:04,VALID,1000.37,VALID,0,VALID,90.3652,VALID,0.112286,VALID,19.0423,VALID,19,VALID,0.757422,
2009-10-16, 03:02:04,VALID,1000.39,VALID,0,VALID,90.4186,VALID,0.112286,VALID,19.0618,VALID,22,VALID,0.862109,
2009-10-16, 03:03:04,VALID,1000.38,VALID,0,VALID,90.0371,VALID,0,VALID,19.0423,VALID,24,VALID,0.758984,
2009-10-16, 03:04:04,VALID,1000.38,VALID,0,VALID,89.9227,VALID,0,VALID,19.0033,VALID,24,VALID,0.659375,
2009-10-16, 03:05:04,VALID,1000.41,VALID,0,VALID,90.7238,VALID,0,VALID,18.9434,VALID,24,VALID,0.809375,
2009-10-16, 03:06:04,VALID,1000.42,VALID,0,VALID,91.0443,VALID,0,VALID,18.9838,VALID,24,VALID,0.882422,
2009-10-16, 03:07:04,VALID,1000.43,VALID,0,VALID,90.9909,VALID,0,VALID,18.9629,VALID,24,VALID,0.837109,
2009-10-16, 03:08:04,VALID,1000.44,VALID,0,VALID,90.9374,VALID,0,VALID,19.0033,VALID,24,VALID,0.775781,
2009-10-16, 03:09:04,VALID,1000.45,VALID,0,VALID,90.8917,VALID,0,VALID,19.0228,VALID,18,VALID,0.588672,
2009-10-16, 03:10:04,VALID,1000.47,VALID,0,VALID,90.8306,VALID,0.112286,VALID,19.0033,VALID,18,VALID,0.451562,
2009-10-16, 03:11:04,VALID,1000.45,VALID,0,VALID,91.0824,VALID,0.112286,VALID,19.0019,VALID,18,VALID,0.562891,
2009-10-16, 03:12:04,VALID,1000.45,VALID,0,VALID,91.4105,VALID,0,VALID,19.0618,VALID,32,VALID,0.716797,
2009-10-16, 03:13:04,VALID,1000.43,VALID,0,VALID,91.2274,VALID,0,VALID,19.1203,VALID,32,VALID,0.726172,
2009-10-16, 03:14:04,VALID,1000.43,VALID,0,VALID,90.968,VALID,0,VALID,19.1607,VALID,34,VALID,0.721094,
2009-10-16, 03:15:04,VALID,1000.42,VALID,0,VALID,90.6628,VALID,0,VALID,19.1802,VALID,34,VALID,0.631641,
2009-10-16, 03:16:04,VALID,1000.45,VALID,0,VALID,90.2203,VALID,0,VALID,19.1997,VALID,34,VALID,0.369531,
2009-10-16, 03:17:04,VALID,1000.45,VALID,0,VALID,90.1287,VALID,0,VALID,19.1592,VALID,34,VALID,0.621484,
2009-10-16, 03:18:04,VALID,1000.49,VALID,0,VALID,90.1211,VALID,0,VALID,19.1397,VALID,33,VALID,0.35625,
2009-10-16, 03:19:04,VALID,1000.48,VALID,0,VALID,90.3347,VALID,0,VALID,19.1397,VALID,34,VALID,0.547266,
2009-10-16, 03:20:04,VALID,1000.48,VALID,0,VALID,90.411,VALID,0,VALID,19.1607,VALID,34,VALID,0.487891,
2009-10-16, 03:21:04,VALID,1000.48,VALID,0,VALID,90.5712,VALID,0,VALID,19.1397,VALID,33,VALID,0.717969,
2009-10-16, 03:22:04,VALID,1000.48,VALID,0,VALID,90.1592,VALID,0,VALID,19.1592,VALID,33,VALID,0.512109,
2009-10-16, 03:23:04,VALID,1000.45,VALID,0,VALID,89.8998,VALID,0,VALID,19.1412,VALID,33,VALID,0.560938,
2009-10-16, 03:24:04,VALID,1000.44,VALID,0,VALID,90.5026,VALID,0,VALID,19.1217,VALID,33,VALID,0.612109,
2009-10-16, 03:25:04,VALID,1000.42,VALID,0,VALID,90.3576,VALID,0,VALID,19.1022,VALID,33,VALID,0.686719,
2009-10-16, 03:26:04,VALID,1000.41,VALID,0,VALID,90.762,VALID,0,VALID,19.0813,VALID,33,VALID,0.64375,
2009-10-16, 03:27:04,VALID,1000.42,VALID,0,VALID,90.3881,VALID,0,VALID,19.0618,VALID,33,VALID,0.496875,
2009-10-16, 03:28:04,VALID,1000.41,VALID,0,VALID,90.5712,VALID,0,VALID,19.0243,VALID,33,VALID,0.5,
2009-10-16, 03:29:04,VALID,1000.43,VALID,0,VALID,90.7543,VALID,0.112286,VALID,19.0228,VALID,33,VALID,0.574609,
2009-10-16, 03:30:04,VALID,1000.42,VALID,0,VALID,90.8764,VALID,0.112286,VALID,18.9824,VALID,33,VALID,0.411328,
2009-10-16, 03:31:04,VALID,1000.43,VALID,0,VALID,90.556,VALID,0.112286,VALID,18.9254,VALID,33,VALID,0.254297,
2009-10-16, 03:32:04,VALID,1000.46,VALID,0,VALID,90.8459,VALID,0,VALID,18.9059,VALID,33,VALID,0.305078,
2009-10-16, 03:33:04,VALID,1000.44,VALID,0,VALID,91.4715,VALID,0,VALID,18.885,VALID,33,VALID,0.5,
2009-10-16, 03:34:04,VALID,1000.44,VALID,0,VALID,91.8072,VALID,0,VALID,18.9254,VALID,33,VALID,0.620703,
2009-10-16, 03:35:04,VALID,1000.43,VALID,0,VALID,92.0819,VALID,0.112286,VALID,18.9239,VALID,33,VALID,0.741016,
2009-10-16, 03:36:04,VALID,1000.44,VALID,0,VALID,92.0132,VALID,0.112286,VALID,18.9434,VALID,33,VALID,0.680859,
2009-10-16, 03:37:04,VALID,1000.43,VALID,0,VALID,91.7157,VALID,0,VALID,18.9449,VALID,33,VALID,0.605078,
2009-10-16, 03:38:04,VALID,1000.43,VALID,0,VALID,91.9217,VALID,0.112286,VALID,18.9239,VALID,33,VALID,0.642578,
2009-10-16, 03:39:04,VALID,1000.45,VALID,0,VALID,92.2345,VALID,0.112286,VALID,18.9644,VALID,32,VALID,0.640234,
2009-10-16, 03:40:04,VALID,1000.42,VALID,0,VALID,92.0819,VALID,0.112286,VALID,18.9838,VALID,32,VALID,0.628906,
2009-10-16, 03:41:04,VALID,1000.41,VALID,0,VALID,92.3337,VALID,0,VALID,19.0228,VALID,32,VALID,0.642578,
2009-10-16, 03:42:04,VALID,1000.42,VALID,0,VALID,92.1734,VALID,0,VALID,19.0228,VALID,32,VALID,0.580078,
2009-10-16, 03:43:04,VALID,1000.42,VALID,0,VALID,92.0743,VALID,0.112286,VALID,19.0019,VALID,32,VALID,0.470313,
2009-10-16, 03:44:04,VALID,1000.42,VALID,0,VALID,92.265,VALID,0,VALID,19.0228,VALID,32,VALID,0.428516,
2009-10-16, 03:45:04,VALID,1000.45,VALID,0,VALID,92.3031,VALID,0,VALID,19.0214,VALID,32,VALID,0.422656,